This is the latest recevied weather packets stored in our database for station/object KM6YFK-13. If no packets are shown the sender has not sent any weather packets the latest 10 day(s).
| Time | Temp. | Humidity | Pressure | Rain* | Wind** | Luminosity | Snow |
|---|---|---|---|---|---|---|---|
| 1777478608 | 27.22° C | 55% | 1016.7 hPa | 0 mm | - | 876 W/m² | - |
| 1777478308 | 26.67° C | 55% | 1016.7 hPa | 0 mm | - | 458 W/m² | - |
| 1777478008 | 26.67° C | 56% | 1016.7 hPa | 0 mm | - | 368 W/m² | - |
| 1777477708 | 27.22° C | 56% | 1016.8 hPa | 0 mm | - | 354 W/m² | - |
| 1777477409 | 27.22° C | 56% | 1016.9 hPa | 0 mm | - | 331 W/m² | - |
| 1777477108 | 27.22° C | 56% | 1016.9 hPa | 0 mm | - | 407 W/m² | - |
| 1777476808 | 27.22° C | 56% | 1017 hPa | 0 mm | - | 967 W/m² | - |
| 1777476508 | 27.22° C | 57% | 1017.1 hPa | 0 mm | - | 915 W/m² | - |
| 1777476209 | 26.67° C | 62% | 1017.3 hPa | 0 mm | - | 828 W/m² | - |
| 1777475910 | 26.67° C | 61% | 1017.4 hPa | 0 mm | - | 788 W/m² | - |
| 1777475608 | 26.67° C | 60% | 1017.4 hPa | 0 mm | - | 764 W/m² | - |
| 1777475310 | 26.67° C | 61% | 1017.6 hPa | 0 mm | - | 762 W/m² | - |
| 1777475010 | 26.11° C | 62% | 1017.6 hPa | 0 mm | - | 704 W/m² | - |
| 1777474709 | 26.11° C | 63% | 1017.7 hPa | 0 mm | - | 748 W/m² | - |
| 1777474408 | 26.11° C | 65% | 1017.8 hPa | 0 mm | - | 745 W/m² | - |
| 1777474109 | 25.56° C | 66% | 1017.8 hPa | 0 mm | - | 716 W/m² | - |
| 1777473808 | 25.56° C | 67% | 1017.8 hPa | 0 mm | - | 643 W/m² | - |
| 1777473510 | 25.56° C | 73% | 1017.8 hPa | 0 mm | - | 690 W/m² | - |
| 1777473208 | 25.56° C | 68% | 1017.9 hPa | 0 mm | - | 672 W/m² | - |
| 1777472908 | 25° C | 71% | 1017.8 hPa | 0 mm | - | 658 W/m² | - |
| 1777472608 | 25° C | 73% | 1017.9 hPa | 0 mm | - | 646 W/m² | - |
| 1777472308 | 25° C | 72% | 1017.8 hPa | 0 mm | - | 631 W/m² | - |
| 1777472012 | 24.44° C | 74% | 1017.8 hPa | 0 mm | - | 443 W/m² | - |
| 1777471710 | 24.44° C | 77% | 1017.8 hPa | 0 mm | - | 388 W/m² | - |
| 1777471409 | 24.44° C | 78% | 1017.8 hPa | 0 mm | - | 533 W/m² | - |
* Rain latest hour (hover to see other rain measurements)
** Current wind speed in m/s (hover to see current wind gust speed)